Back to catalog

NOAA 16 DEB

AliveSSO
NORAD 41657·DEBRIS·🇺🇸 United States

Launched Sep 21, 2000 from Vandenberg Space Force Base

Loading…

Next Passes (next 24 hours)

TLE

FreshSource: Space-Track

Epoch: Sep 14, 2026, 09:51 UTC

1 41657U 00055NW  26257.41080607  .00002545  00000-0  93833-3 0  9996
2 41657  98.6262 322.4909 0011955 224.1949 135.8281 14.33373259538812

Track NOAA 16 DEB in real time with AllMySat

Download on the App Store